SKYNET 5B

Last updated on Jan. 19, 2021, 6:23 a.m. UTC

1 32294U 07056B   21018.83417873  .00000144  00000-0  00000-0 0  9990
2 32294   0.2628  82.1860 0004095 218.0108 143.6217  1.00273426 48396
UTC
Height (km)
Latitude
Longitude
Inclination
Orbital Period
UTC large
Height (km)
Speed (km/s)
/
Latitude / Longitude
Inclination (degrees)
Orbital Period (minutes)
Azimuth
Elevation
Range (km)
Doppler Factor
iOS Compass Heading
iOS Angle

Next 30 passes for location: Hong Kong

Rise time Rise Azimuth (degrees) Set time Set Azimuth (degrees) Duration Max altitude (degrees)

No matching passes for this satellites